Paducah, KY

8:31 AM CDT on April 22, 2018 (GMT -0500)
Barkley Regional

Weather History for KPAH - June, 2013

Change the Weather History Date:

Sunday, June 30, 2013

  Actual Average Record
Temperature  
Mean Temperature 68 °F 78 °F  
Max Temperature 75 °F 89 °F 106 °F (1952)
Min Temperature 61 °F 68 °F 53 °F (1950)
Degree Days  
Heating Degree Days 0 0  
Month to date heating degree days 0 0  
Since 1 June heating degree days 0 4  
Since 1 July heating degree days 4210 4132  
Cooling Degree Days 3 13  
Month to date cooling degree days 322 320  
Year to date cooling degree days 500 492  
Since 1 June cooling degree days 322 320  
Growing Degree Days 18 (Base 50)    
Moisture  
Dew Point 64 °F    
Average Humidity 87    
Maximum Humidity 100    
Minimum Humidity 73    
Precipitation  
Precipitation 0.78 in 0.14 in 2.02 in (1997)
Month to date precipitation 9.11 4.06  
Year to date precipitation 34.58 25.28  
Snow  
Snow 0.00 in 0.00 in 0.00 in (2002)
Month to date snowfall 0.0 0.0  
Since 1 June snowfall 0.0 0.0  
Since 1 July snowfall 6.8 9.1  
Snow Depth 0.00 in    
Sea Level Pressure  
Sea Level Pressure 29.77 in    
Wind  
Wind Speed 4 mph (NNW)    
Max Wind Speed 17 mph    
Max Gust Speed 22 mph    
Visibility 8 miles    
Events Rain , Thunderstorm    
T = Trace of Precipitation, MM = Missing Value Source: NWS Daily Summary

Daily Weather History Graph

Daily Weather History Graph

Search for Another Location

Airport or City:

Astronomy

Jun. 30, 2013 Rise Set
Actual Time 5:38 AM CDT 8:18 PM CDT
Civil Twilight 5:07 AM CDT 8:49 PM CDT
Nautical Twilight 4:29 AM CDT 9:27 PM CDT
Astronomical Twilight 3:46 AM CDT 10:10 PM CDT
Moon 12:30 AM CDT (6/30) 1:39 PM CDT (6/30)
Length of Visible Light 15h 41m
Length of Day
14h 40m
Last Quarter, 45% of the Moon is Illuminated
Jun 30
Last Quarter
Jul 8
New
Jul 15
First Quarter
Jul 22
Full
Jul 29
Last Quarter

Hourly Weather History & Observations

Time (CDT) Temp. Dew Point Humidity Pressure Visibility Wind Dir Wind Speed Gust Speed Precip Events Conditions
12:53 AM 64.0 °F 61.0 °F 90% 29.70 in 10.0 mi Calm Calm - N/A   Partly Cloudy
1:53 AM 63.0 °F 60.1 °F 90% 29.70 in 10.0 mi Calm Calm - N/A   Clear
2:53 AM 61.0 °F 60.1 °F 97% 29.69 in 10.0 mi Calm Calm - N/A   Clear
3:53 AM 61.0 °F 60.1 °F 97% 29.69 in 10.0 mi WSW 3.5 mph - N/A   Clear
4:53 AM 61.0 °F 60.1 °F 97% 29.70 in 7.0 mi West 4.6 mph - N/A   Scattered Clouds
5:02 AM 60.8 °F 60.8 °F 100% 29.71 in 8.0 mi West 3.5 mph - N/A   Mostly Cloudy
5:53 AM 64.0 °F 62.1 °F 93% 29.72 in 8.0 mi Calm Calm - N/A   Overcast
6:53 AM 64.9 °F 63.0 °F 93% 29.74 in 5.0 mi North 4.6 mph - N/A   Overcast
7:53 AM 66.0 °F 64.0 °F 93% 29.76 in 6.0 mi NNE 4.6 mph - N/A   Overcast
8:03 AM 66.2 °F 64.4 °F 94% 29.77 in 6.0 mi North 3.5 mph - N/A   Overcast
8:41 AM 68.0 °F 64.4 °F 88% 29.78 in 9.0 mi Calm Calm - N/A   Overcast
8:53 AM 68.0 °F 64.0 °F 87% 29.77 in 10.0 mi Calm Calm - N/A   Overcast
9:53 AM 71.1 °F 63.0 °F 75% 29.78 in 10.0 mi Variable 4.6 mph - N/A   Overcast
10:00 AM 71.6 °F 64.4 °F 78% 29.78 in 10.0 mi Calm Calm - N/A   Overcast
10:08 AM 73.4 °F 64.4 °F 73% 29.78 in 10.0 mi Variable 3.5 mph - N/A   Mostly Cloudy
10:16 AM 73.4 °F 64.4 °F 73% 29.78 in 10.0 mi NNE 5.8 mph - N/A   Mostly Cloudy
10:53 AM 70.0 °F 64.0 °F 81% 29.78 in 10.0 mi NW 6.9 mph - 0.00 in Rain Light Rain
11:53 AM 69.1 °F 64.0 °F 84% 29.79 in 10.0 mi NNW 10.4 mph - 0.00 in   Overcast
12:12 PM 68.0 °F 64.4 °F 88% 29.79 in 6.0 mi NNW 5.8 mph - 0.00 in Rain Light Rain
12:53 PM 72.0 °F 66.0 °F 81% 29.78 in 10.0 mi NNW 8.1 mph - 0.00 in   Overcast
1:53 PM 73.0 °F 64.9 °F 76% 29.78 in 6.0 mi NNE 4.6 mph - 0.00 in Rain Light Rain
2:53 PM 69.1 °F 64.9 °F 87% 29.78 in 9.0 mi ESE 8.1 mph - 0.02 in   Overcast
2:57 PM 69.8 °F 66.2 °F 88% 29.78 in 7.0 mi ESE 3.5 mph - 0.00 in Rain , Thunderstorm Light Thunderstorms and Rain
3:29 PM 69.8 °F 66.2 °F 88% 29.79 in 2.5 mi North 3.5 mph - 0.01 in Rain Rain
3:36 PM 68.0 °F 64.4 °F 88% 29.79 in 0.8 mi North 3.5 mph - 0.11 in Rain Rain
3:53 PM 68.0 °F 64.9 °F 90% 29.78 in 1.0 mi Calm Calm - 0.44 in Rain Rain
4:12 PM 68.0 °F 66.2 °F 94% 29.78 in 2.5 mi SSE 3.5 mph - 0.07 in Rain Rain
4:22 PM 68.0 °F 66.2 °F 94% 29.79 in 5.0 mi Calm Calm - 0.08 in Rain Light Rain
4:33 PM 68.0 °F 66.2 °F 94% 29.79 in 1.8 mi NW 5.8 mph - 0.11 in Rain Heavy Rain
4:53 PM 68.0 °F 66.0 °F 93% 29.78 in 3.0 mi SW 4.6 mph - 0.19 in Rain Light Rain
5:17 PM 69.8 °F 66.2 °F 88% 29.78 in 10.0 mi Calm Calm - 0.00 in Thunderstorm Thunderstorm
5:30 PM 69.8 °F 66.2 °F 88% 29.79 in 9.0 mi ENE 12.7 mph 18.4 mph 0.00 in Rain , Thunderstorm Thunderstorms and Rain
5:53 PM 68.0 °F 64.0 °F 87% 29.79 in 6.0 mi North 9.2 mph - 0.00 in Rain , Thunderstorm Thunderstorms and Rain
6:49 PM 68.0 °F 64.4 °F 88% 29.80 in 10.0 mi North 5.8 mph - 0.13 in   Overcast
6:53 PM 68.0 °F 64.9 °F 90% 29.79 in 10.0 mi North 5.8 mph - 0.13 in   Overcast
7:53 PM 68.0 °F 66.0 °F 93% 29.79 in 10.0 mi Calm Calm - N/A   Partly Cloudy
8:53 PM 66.9 °F 64.0 °F 90% 29.80 in 10.0 mi North 4.6 mph - N/A   Scattered Clouds
9:53 PM 66.9 °F 64.0 °F 90% 29.82 in 10.0 mi Calm Calm - N/A   Scattered Clouds
10:53 PM 66.9 °F 64.9 °F 93% 29.83 in 10.0 mi Calm Calm - N/A   Clear
11:53 PM 66.0 °F 64.0 °F 93% 29.82 in 5.0 mi WSW 4.6 mph - N/A   Scattered Clouds